When you browse on this site, cookies collect data to enhance your experience and personalize the content and advertising you see.
Visit our Privacy Policy to learn more. By continuing to use the site, you agree to this use of cookies and data.
  • în România
  • Lista ţărilor
  • Pe 7 zile
  • Temperatura apei
  • Hartă satelitară
  • Meteo pe hartă
  • Widget-uri
  • user-avatar
    Intrare

    Meteo pe oră la Korzovo

    Astăzi, 16 Ianuarie, Miercuri

    Timp Temperatura Precipitaţii Vânt Presiune Umiditate
    00:00 -10°C° 0 mm 4 m/s 722 mmHg 90%
    01:00 -9°C° 0 mm 3 m/s 723 mmHg 91%
    02:00 -9°C° 0 mm 3 m/s 723 mmHg 92%
    03:00 -10°C° 0 mm 3 m/s 723 mmHg 92%
    04:00 -10°C° 0 mm 3 m/s 723 mmHg 92%
    05:00 -10°C° 0 mm 3 m/s 724 mmHg 92%
    06:00 -10°C° 0 mm 3 m/s 724 mmHg 93%
    07:00 -12°C° 0 mm 3 m/s 724 mmHg 93%
    08:00 -10°C° 0 mm 2 m/s 724 mmHg 94%
    09:00 -12°C° 0 mm 3 m/s 725 mmHg 93%
    10:00 -10°C° 0 mm 3 m/s 725 mmHg 92%
    11:00 -10°C° 0 mm 3 m/s 725 mmHg 92%
    12:00 -9°C° 0 mm 3 m/s 725 mmHg 91%
    13:00 -9°C° 0 mm 3 m/s 725 mmHg 91%
    14:00 -9°C° 0 mm 3 m/s 726 mmHg 91%
    15:00 -9°C° 0 mm 3 m/s 726 mmHg 91%
    16:00 -9°C° 0 mm 3 m/s 726 mmHg 92%
    17:00 -9°C° 0 mm 3 m/s 727 mmHg 92%
    18:00 -9°C° 0 mm 3 m/s 727 mmHg 92%
    19:00 -8°C° 0 mm 3 m/s 727 mmHg 92%
    20:00 -8°C° 0 mm 3 m/s 727 mmHg 92%
    21:00 -8°C° 0 mm 3 m/s 728 mmHg 92%
    22:00 -8°C° 0 mm 3 m/s 728 mmHg 92%
    23:00 -9°C° 0 mm 3 m/s 729 mmHg 91%

    Mâine, 17 Ianuarie, Joi

    Timp Temperatura Precipitaţii Vânt Presiune Umiditate
    00:00 -9°C° 0 mm 3 m/s 729 mmHg 90%
    01:00 -9°C° 0 mm 3 m/s 729 mmHg 89%
    02:00 -10°C° 0 mm 3 m/s 729 mmHg 88%
    03:00 -10°C° 0 mm 3 m/s 729 mmHg 90%
    04:00 -12°C° 0 mm 3 m/s 729 mmHg 92%
    05:00 -13°C° 0 mm 3 m/s 729 mmHg 94%
    06:00 -12°C° 0.1 mm 3 m/s 729 mmHg 93%
    07:00 -11°C° 0.1 mm 4 m/s 728 mmHg 92%
    08:00 -11°C° 0.1 mm 4 m/s 728 mmHg 91%
    09:00 -11°C° 0.4 mm 5 m/s 727 mmHg 91%
    10:00 -10°C° 0.4 mm 5 m/s 727 mmHg 91%
    11:00 -8°C° 0.4 mm 5 m/s 726 mmHg 90%
    12:00 -6°C° 0.3 mm 5 m/s 726 mmHg 89%
    13:00 -5°C° 0.3 mm 6 m/s 725 mmHg 89%
    14:00 -4°C° 0.3 mm 6 m/s 725 mmHg 88%
    15:00 -3°C° 0.2 mm 6 m/s 724 mmHg 88%
    16:00 -2°C° 0.2 mm 6 m/s 723 mmHg 87%
    17:00 -2°C° 0.2 mm 6 m/s 722 mmHg 87%
    18:00 -2°C° 0.5 mm 6 m/s 722 mmHg 87%
    19:00 -2°C° 0.5 mm 7 m/s 722 mmHg 86%
    20:00 -2°C° 0.5 mm 7 m/s 721 mmHg 85%
    21:00 -2°C° 0.1 mm 7 m/s 721 mmHg 84%
    22:00 -2°C° 0.1 mm 7 m/s 721 mmHg 83%
    23:00 -2°C° 0.1 mm 6 m/s 722 mmHg 82%

    Poimâine, 18 Ianuarie, Vineri

    Timp Temperatura Precipitaţii Vânt Presiune Umiditate
    00:00 -2°C° 0 mm 6 m/s 722 mmHg 81%
    01:00 -2°C° 0 mm 6 m/s 722 mmHg 81%
    02:00 -2°C° 0 mm 6 m/s 722 mmHg 81%
    03:00 -2°C° 0.1 mm 6 m/s 722 mmHg 81%
    04:00 -2°C° 0.1 mm 7 m/s 722 mmHg 81%
    05:00 -2°C° 0.1 mm 7 m/s 722 mmHg 80%
    06:00 -2°C° 0.1 mm 7 m/s 722 mmHg 81%
    07:00 -2°C° 0.1 mm 7 m/s 723 mmHg 81%
    08:00 -2°C° 0.1 mm 7 m/s 723 mmHg 82%
    09:00 -2°C° 0.1 mm 6 m/s 723 mmHg 83%
    10:00 -2°C° 0.1 mm 6 m/s 724 mmHg 84%
    11:00 -2°C° 0.1 mm 6 m/s 724 mmHg 85%
    12:00 -1°C° 0.2 mm 5 m/s 724 mmHg 87%
    13:00 -1°C° 0.2 mm 4 m/s 724 mmHg 89%
    14:00 0°C° 0.2 mm 3 m/s 724 mmHg 91%
    15:00 -3°C° 0.7 mm 4 m/s 724 mmHg 92%
    16:00 -4°C° 0.7 mm 4 m/s 725 mmHg 93%
    17:00 -7°C° 0.7 mm 4 m/s 725 mmHg 93%
    18:00 -8°C° 0.4 mm 4 m/s 725 mmHg 92%
    19:00 -9°C° 0.4 mm 4 m/s 726 mmHg 92%
    20:00 -9°C° 0.4 mm 3 m/s 727 mmHg 91%
    21:00 -9°C° 0.1 mm 3 m/s 727 mmHg 90%
    22:00 -10°C° 0.1 mm 4 m/s 728 mmHg 89%
    23:00 -11°C° 0.1 mm 4 m/s 728 mmHg 88%

    19 Ianuarie, Sâmbătă

    Timp Temperatura Precipitaţii Vânt Presiune Umiditate
    00:00 -11°C° 0 mm 4 m/s 729 mmHg 87%
    01:00 -11°C° 0 mm 4 m/s 729 mmHg 86%
    02:00 -12°C° 0 mm 4 m/s 730 mmHg 86%
    03:00 -11°C° 0 mm 4 m/s 730 mmHg 86%
    04:00 -11°C° 0 mm 4 m/s 731 mmHg 86%
    05:00 -11°C° 0 mm 4 m/s 731 mmHg 87%
    06:00 -10°C° 0 mm 4 m/s 731 mmHg 86%
    07:00 -10°C° 0 mm 4 m/s 731 mmHg 86%
    08:00 -10°C° 0 mm 4 m/s 732 mmHg 86%
    09:00 -9°C° 0 mm 4 m/s 732 mmHg 84%
    10:00 -10°C° 0 mm 5 m/s 733 mmHg 83%
    11:00 -8°C° 0 mm 5 m/s 733 mmHg 81%
    12:00 -8°C° 0.1 mm 5 m/s 733 mmHg 82%
    13:00 -8°C° 0.1 mm 5 m/s 734 mmHg 83%
    14:00 -7°C° 0.1 mm 4 m/s 734 mmHg 83%
    15:00 -8°C° 0.1 mm 4 m/s 734 mmHg 84%
    16:00 -8°C° 0.1 mm 4 m/s 735 mmHg 85%
    17:00 -8°C° 0.1 mm 4 m/s 735 mmHg 87%
    18:00 -8°C° 0 mm 4 m/s 735 mmHg 86%
    19:00 -8°C° 0 mm 4 m/s 735 mmHg 86%
    20:00 -9°C° 0 mm 4 m/s 735 mmHg 86%
    21:00 -8°C° 0 mm 4 m/s 735 mmHg 86%
    22:00 -8°C° 0 mm 4 m/s 736 mmHg 86%
    23:00 -8°C° 0 mm 4 m/s 736 mmHg 86%

    20 Ianuarie, Duminică

    Timp Temperatura Precipitaţii Vânt Presiune Umiditate
    00:00 -9°C° 0 mm 4 m/s 736 mmHg 87%
    01:00 -9°C° 0 mm 4 m/s 736 mmHg 88%
    02:00 -9°C° 0 mm 4 m/s 737 mmHg 89%
    03:00 -9°C° 0 mm 4 m/s 736 mmHg 89%
    04:00 -9°C° 0 mm 4 m/s 736 mmHg 90%
    05:00 -9°C° 0 mm 3 m/s 736 mmHg 90%
    06:00 -9°C° 0 mm 3 m/s 736 mmHg 91%
    07:00 -9°C° 0 mm 3 m/s 736 mmHg 91%
    08:00 -9°C° 0 mm 3 m/s 736 mmHg 91%
    09:00 -8°C° 0 mm 3 m/s 737 mmHg 91%
    10:00 -8°C° 0 mm 3 m/s 737 mmHg 90%
    11:00 -8°C° 0 mm 3 m/s 737 mmHg 89%
    12:00 -8°C° 0 mm 3 m/s 737 mmHg 88%
    13:00 -7°C° 0 mm 3 m/s 737 mmHg 87%
    14:00 -7°C° 0 mm 3 m/s 737 mmHg 86%
    15:00 -8°C° 0.1 mm 3 m/s 737 mmHg 88%
    16:00 -8°C° 0.1 mm 3 m/s 737 mmHg 90%
    17:00 -8°C° 0.1 mm 3 m/s 737 mmHg 92%
    18:00 -8°C° 0 mm 2 m/s 737 mmHg 93%
    19:00 -9°C° 0 mm 2 m/s 737 mmHg 94%
    20:00 -10°C° 0 mm 2 m/s 737 mmHg 95%
    21:00 -12°C° 0 mm 2 m/s 738 mmHg 96%
    22:00 -12°C° 0 mm 2 m/s 738 mmHg 96%
    23:00 -12°C° 0 mm 2 m/s 738 mmHg 96%

    21 Ianuarie, Luni

    Timp Temperatura Precipitaţii Vânt Presiune Umiditate
    00:00 -12°C° 0 mm 2 m/s 738 mmHg 96%
    01:00 -13°C° 0 mm 2 m/s 738 mmHg 96%
    02:00 -13°C° 0 mm 2 m/s 739 mmHg 97%
    03:00 -11°C° 0 mm 1 m/s 739 mmHg 97%
    04:00 -11°C° 0 mm 1 m/s 739 mmHg 97%
    05:00 -10°C° 0 mm 1 m/s 739 mmHg 97%
    06:00 -11°C° 0 mm 1 m/s 740 mmHg 97%
    07:00 -11°C° 0 mm 1 m/s 740 mmHg 97%
    08:00 -11°C° 0 mm 1 m/s 740 mmHg 97%
    09:00 -11°C° 0 mm 1 m/s 741 mmHg 96%
    10:00 -10°C° 0 mm 1 m/s 741 mmHg 95%
    11:00 -9°C° 0 mm 1 m/s 742 mmHg 95%
    12:00 -12°C° 0 mm 2 m/s 742 mmHg 94%
    13:00 -12°C° 0 mm 2 m/s 742 mmHg 93%
    14:00 -12°C° 0 mm 2 m/s 742 mmHg 92%
    15:00 -14°C° 0 mm 2 m/s 742 mmHg 93%
    16:00 -15°C° 0 mm 2 m/s 743 mmHg 94%
    17:00 -16°C° 0 mm 2 m/s 743 mmHg 95%
    18:00 -17°C° 0 mm 2 m/s 743 mmHg 96%
    19:00 -18°C° 0 mm 2 m/s 744 mmHg 96%
    20:00 -19°C° 0 mm 2 m/s 744 mmHg 97%
    21:00 -20°C° 0 mm 2 m/s 744 mmHg 97%
    22:00 -20°C° 0 mm 2 m/s 745 mmHg 98%
    23:00 -21°C° 0 mm 2 m/s 745 mmHg 98%
    Arată mai mult